Location: *
(45.1961°N, 1.9694°E)
Time: 07:53:44
(UTC+00:00)

Cosmos 2278 - Pass Details

Date: 25 August 2019
Orbit: 841 x 852 km, 71.1° (Epoch: 19 September)

Event Time Altitude Azimuth Distance (km) Brightness Sun altitude
Rises 21:16:30 0° 329° (NNW) 3,409 8.2 -23.8°
Reaches altitude 10° 21:19:01 10° 323° (NW) 2,471 7.2 -24.1°
Maximum altitude 21:24:24 46° 252° (WSW) 1,120 4.4 -24.8°
Enters shadow 21:26:08 35° 208° (SSW) 1,325 4.5 -25.0°
